Gastonia, NC

4:23 PM EST on January 18, 2020 (GMT -0500)
Gastonia Municipal

Weather History for KAKH - November, 2019

Change the Weather History Date:

Wednesday, November 13, 2019

  Actual Average (WUND) Record (WUND)
Temperature  
Mean Temperature 34 °F -  
Max Temperature 43 °F - - (-1)
Min Temperature 25 °F - - (-1)
Degree Days  
Heating Degree Days 31    
Moisture  
Dew Point 14 °F    
Average Humidity 50    
Maximum Humidity 78    
Minimum Humidity 28    
Precipitation  
Precipitation 0.00 in - - ()
Sea Level Pressure  
Sea Level Pressure 30.38 in    
Wind  
Wind Speed 5 mph ()    
Max Wind Speed 12 mph    
Max Gust Speed -    
Visibility 10.0 miles    
Events      
Averages and records for this station are not official NWS values.
T = Trace of Precipitation, MM = Missing Value Source: Averaged Metar Reports

Daily Weather History Graph

Daily Weather History Graph

Search for Another Location

Airport or City:

Astronomy

Nov. 13, 2019 Rise Set
Actual Time 6:57 AM EST 5:20 PM EST
Civil Twilight 6:30 AM EST 5:46 PM EST
Nautical Twilight 5:59 AM EST 6:17 PM EST
Astronomical Twilight 5:29 AM EST 6:47 PM EST
Moon 6:23 PM EST (11/13) 7:48 AM EST (11/13)
Length of Visible Light 11h 16m
Length of Day
10h 22m
Full, 99% of the Moon is Illuminated
Nov 13
Full
Nov 19
Last Quarter
Nov 26
New
Dec 4
First Quarter
Dec 12
Full

Hourly Weather History & Observations

Time (EST) Temp. Windchill Dew Point Humidity Pressure Visibility Wind Dir Wind Speed Gust Speed Precip Events Conditions
12:54 AM 28.9 °F 21.9 °F 16.0 °F 58% 30.30 in 10.0 mi North 6.9 mph - N/A   Clear
1:54 AM 28.9 °F 19.8 °F 15.1 °F 56% 30.30 in 10.0 mi NNE 10.4 mph - N/A   Clear
2:54 AM 28.0 °F 19.3 °F 14.0 °F 56% 30.31 in 10.0 mi NNE 9.2 mph - N/A   Clear
4:54 AM 26.1 °F 19.4 °F 12.9 °F 58% 30.36 in 10.0 mi North 5.8 mph - N/A   Clear
5:54 AM 25.0 °F 18.1 °F 12.0 °F 58% 30.38 in 10.0 mi North 5.8 mph - N/A   Clear
6:54 AM 25.0 °F 18.1 °F 12.0 °F 58% 30.39 in 10.0 mi NNE 5.8 mph - N/A   Clear
7:54 AM 28.0 °F 20.8 °F 12.9 °F 53% 30.41 in 10.0 mi NNE 6.9 mph - N/A   Clear
8:54 AM 30.9 °F 21.7 °F 10.9 °F 43% 30.45 in 10.0 mi NE 11.5 mph - N/A   Clear
9:54 AM 34.0 °F 27.2 °F 12.0 °F 40% 30.45 in 10.0 mi NE 8.1 mph - N/A   Clear
10:54 AM 36.0 °F 30.3 °F 10.9 °F 36% 30.44 in 10.0 mi North 6.9 mph - N/A   Clear
11:54 AM 37.9 °F 33.5 °F 12.0 °F 35% 30.42 in 10.0 mi NE 5.8 mph - N/A   Clear
12:54 PM 39.9 °F 36.7 °F 10.9 °F 31% 30.40 in 10.0 mi ENE 4.6 mph - N/A   Clear
1:54 PM 42.1 °F 37.7 °F 10.9 °F 28% 30.38 in 10.0 mi NNE 6.9 mph - N/A   Clear
2:54 PM 43.0 °F 38.8 °F 12.0 °F 28% 30.35 in 10.0 mi ENE 6.9 mph - N/A   Clear
3:54 PM 43.0 °F 38.2 °F 12.9 °F 30% 30.33 in 10.0 mi NNE 8.1 mph - N/A   Clear
4:54 PM 39.9 °F 37.8 °F 12.0 °F 32% 30.35 in 10.0 mi NE 3.5 mph - N/A   Clear
5:54 PM 35.1 °F - 18.0 °F 50% 30.38 in 10.0 mi Calm Calm - N/A   Clear
6:54 PM 30.9 °F - 19.0 °F 61% 30.41 in 10.0 mi Calm Calm - N/A   Clear
7:54 PM 30.9 °F - 19.0 °F 61% 30.41 in 10.0 mi Calm Calm - N/A   Clear
8:54 PM 30.0 °F - 19.0 °F 64% 30.40 in 10.0 mi Calm Calm - N/A   Clear
9:54 PM 28.9 °F - 19.0 °F 67% 30.41 in 10.0 mi Calm Calm - N/A   Clear
10:54 PM 27.0 °F - 19.9 °F 75% 30.42 in 10.0 mi Calm Calm - N/A   Clear
11:54 PM 26.1 °F - 19.9 °F 78% 30.40 in 10.0 mi Calm Calm - N/A   Clear